Waarnemingen

Advertentie
Mijn weer
Manschnow, Duitsland (10396): temperatuur & dauwpunt: 08.08.2018 17:00:00 - 14.08.2018 17:00:00 (CEST)Manschnow, Duitsland (10396): temperatuur 5cm & temperatuur -5cm: 08.08.2018 17:00:00 - 14.08.2018 17:00:00 (CEST)Manschnow, Duitsland (10396): temperatuur -20cm & temperatuur -100cm: 08.08.2018 17:00:00 - 14.08.2018 17:00:00 (CEST)Manschnow, Duitsland (10396): windsnelheid & windstoten: 08.08.2018 17:00:00 - 14.08.2018 17:00:00 (CEST)Manschnow, Duitsland (10396): windrichting: 08.08.2018 17:00:00 - 14.08.2018 17:00:00 (CEST)Manschnow, Duitsland (10396): luchtdruk: 08.08.2018 17:00:00 - 14.08.2018 17:00:00 (CEST)Manschnow, Duitsland (10396): zicht: 08.08.2018 17:00:00 - 14.08.2018 17:00:00 (CEST)Manschnow, Duitsland (10396): Zonneschijnduur: 08.08.2018 17:00:00 - 14.08.2018 17:00:00 (CEST)Manschnow, Duitsland (10396): neerslag: 08.08.2018 17:00:00 - 14.08.2018 17:00:00 (CEST)
Datum & Tijd tt [°C] td [°C] tt 5cm [°C] tt -5cm [°C] tt -20cm [°C] tt -100cm [°C] ff [km/u] ff [kn] fx [km/u] fx [kn] dd ppp [hPa] vv [km] sd [min] rr [mm]
14.08.2018 17:00:00 24,6 12,1 26,1 30,4 27,2 21,9 17 9 33 18 WZW 1010,2 28 0 0,0
14.08.2018 16:00:00 24,5 11,6 26,0 31,9 27,0 21,9 15 8 35 19 WZW 1010,1 31 16 0,0
14.08.2018 15:00:00 24,3 11,4 27,2 31,9 26,7 21,9 20 11 35 19 ZW 1010,3 30 7 0,0
14.08.2018 14:00:00 24,6 12,2 27,7 32,5 26,2 21,9 16 9 34 18 WZW 1010,0 23 17 0,0
14.08.2018 13:00:00 25,6 12,7 31,6 33,1 25,6 21,9 17 9 34 18 ZW 1009,8 21 45 0,0
14.08.2018 12:00:00 24,2 12,7 28,5 31,7 25,1 21,9 19 11 36 19 WZW 1009,8 18 53 0,0
14.08.2018 11:00:00 22,6 13,4 26,8 28,9 24,7 21,9 18 10 30 16 WZW 1009,8 39 48 0,0
14.08.2018 10:00:00 21,6 13,5 25,2 26,6 24,5 21,9 17 9 29 16 WZW 1009,6 30 52 0,0
14.08.2018 09:00:00 20,4 13,9 23,1 24,2 24,6 21,9 16 9 24 13 W 1009,2 17 43 0,0
14.08.2018 08:00:00 19,6 13,9 20,8 22,8 24,7 21,9 16 9 27 15 WZW 1008,8 27 24 0,0
14.08.2018 07:00:00 19,0 13,6 18,1 22,5 25,0 21,9 11 6 21 11 W 1008,6 36 0 0,0
14.08.2018 06:00:00 20,1 13,7 19,6 22,9 25,2 21,9 12 6 22 12 ZW 1008,0 41 0 0,0
14.08.2018 05:00:00 20,5 14,1 20,0 23,1 25,4 21,9 11 6 19 10 ZW 1007,6 40 0 0,0
14.08.2018 04:00:00 20,1 14,2 19,4 23,3 25,7 21,9 8 4 15 8 ZZW 1007,4 35 0 0,0
14.08.2018 03:00:00 20,0 14,2 19,1 23,6 26,0 22,0 7 4 12 6 ZW 1007,3 40 0 0,0
14.08.2018 02:00:00 20,2 14,1 19,2 24,1 26,3 22,0 7 4 11 6 ZZW 1007,3 37 0 0,0
14.08.2018 01:00:00 21,1 14,1 20,2 24,7 26,7 22,0 6 4 19 10 ZW 1007,4 56 0 0,0
14.08.2018 00:00:00 21,5 13,8 20,9 25,2 27,0 22,0 9 5 18 10 ZW 1007,4 54 0 0,0
13.08.2018 23:00:00 22,8 13,3 19,6 26,2 27,3 22,0 13 7 27 15 WZW 1007,3 35 0 0,0
13.08.2018 22:00:00 23,8 11,3 23,0 26,9 27,7 22,0 10 5 20 11 W 1007,0 47 0 0,0
13.08.2018 21:00:00 24,9 10,5 24,4 28,0 28,0 22,0 11 6 25 14 WZW 1007,1 40 0 0,0
13.08.2018 20:00:00 25,9 10,1 25,6 29,4 28,2 22,0 20 11 50 27 WNW 1006,2 39 0 0,0
13.08.2018 19:00:00 27,5 9,7 25,9 30,9 28,4 22,0 5 3 21 12 WNW 1005,7 39 0 0,0
13.08.2018 18:00:00 30,1 6,5 30,0 32,8 28,3 22,0 10 5 22 12 WNW 1005,7 46 1 0,0
13.08.2018 17:00:00 31,1 5,3 31,9 35,2 28,0 22,0 14 8 23 13 W 1005,7 30 8 0,0
13.08.2018 16:00:00 32,6 5,9 36,7 37,4 27,3 22,1 10 5 27 15 ZZW 1005,8 31 56 0,0
13.08.2018 15:00:00 32,2 5,6 36,5 38,0 26,5 22,1 16 9 27 14 ZW 1006,3 23 60 0,0
13.08.2018 14:00:00 31,2 7,3 37,3 37,0 25,5 22,1 13 7 27 15 Z 1006,8 24 60 0,0
13.08.2018 13:00:00 30,2 8,5 37,0 35,5 24,5 22,1 11 6 20 11 OZO 1007,1 32 60 0,0
13.08.2018 12:00:00 28,3 10,6 36,2 32,5 23,7 22,1 5 3 13 7 OZO 1008,0 21 60 0,0
13.08.2018 11:00:00 25,7 10,5 29,6 29,2 23,1 22,1 7 4 15 8 OZO 1008,5 25 60 0,0
13.08.2018 10:00:00 22,6 9,3 26,9 25,9 22,7 22,1 7 4 12 7 O 1008,8 38 60 0,0
13.08.2018 09:00:00 20,0 8,1 23,2 22,5 22,5 22,1 6 3 11 6 OZO 1009,3 28 60 0,0
13.08.2018 08:00:00 16,5 7,6 18,7 19,9 22,7 22,1 4 2 13 7 O 1009,5 26 60 0,0
13.08.2018 07:00:00 12,9 7,5 13,1 18,2 23,0 22,2 9 5 14 7 O 1009,3 31 32 0,0
13.08.2018 06:00:00 11,9 7,7 10,5 18,4 23,4 22,2 7 4 10 5 O 1009,7 24 0 0,0
13.08.2018 05:00:00 12,8 7,6 11,1 19,0 23,7 22,2 6 3 9 5 O 1010,0 27 0 0,0
13.08.2018 04:00:00 13,1 7,9 11,8 19,4 24,1 22,2 6 3 10 6 O 1010,4 29 0 0,0
13.08.2018 03:00:00 12,2 8,3 10,4 19,9 24,6 22,2 5 3 9 5 O 1010,9 32 0 0,0
13.08.2018 02:00:00 14,5 8,2 12,3 20,7 25,0 22,2 6 3 11 6 O 1011,1 31 0 0,0
13.08.2018 01:00:00 15,6 8,6 13,5 21,3 25,4 22,3 6 4 9 5 O 1011,7 35 0 0,0
13.08.2018 00:00:00 13,6 8,8 12,1 21,9 25,9 22,3 5 3 8 4 O 1012,1 35 0 0,0
12.08.2018 23:00:00 17,2 8,3 13,2 23,0 26,4 22,3 6 4 10 5 O 1012,3 37 0 0,0
12.08.2018 22:00:00 17,7 8,5 14,0 24,3 26,9 22,3 5 3 14 7 ONO 1012,4 43 0 0,0
12.08.2018 21:00:00 18,3 9,2 15,8 26,2 27,2 22,3 5 3 8 4 OZO 1012,9 45 0 0,0
12.08.2018 20:00:00 22,2 8,7 19,7 28,6 27,4 22,3 4 2 16 9 Z 1013,1 39 29 0,0
12.08.2018 19:00:00 26,0 4,2 27,5 31,2 27,4 22,3 8 5 20 11 Z 1013,4 47 60 0,0
12.08.2018 18:00:00 26,6 3,3 29,3 33,0 27,1 22,3 13 7 27 15 WZW 1014,1 38 60 0,0
12.08.2018 17:00:00 26,5 4,4 29,7 34,1 26,6 22,4 10 6 29 16 ZZW 1014,7 39 60 0,0
12.08.2018 16:00:00 25,9 4,7 29,9 34,6 25,9 22,4 16 9 33 18 ZW 1015,6 33 60 0,0
12.08.2018 15:00:00 25,5 5,5 30,3 34,1 25,2 22,4 13 7 31 17 ZZW 1016,3 30 60 0,0
12.08.2018 14:00:00 24,5 6,1 30,0 33,1 24,4 22,4 15 8 34 18 WZW 1017,2 28 60 0,0
12.08.2018 13:00:00 23,5 5,9 28,9 31,8 23,6 22,4 13 7 29 15 WZW 1018,0 34 58 0,0
12.08.2018 12:00:00 22,4 7,6 27,8 29,2 22,8 22,4 15 8 28 15 ZW 1018,8 35 51 0,0
12.08.2018 11:00:00 21,2 8,4 25,6 27,3 22,2 22,4 14 8 24 13 ZZW 1019,3 31 60 0,0
12.08.2018 10:00:00 20,0 8,6 24,2 24,4 21,7 22,4 9 5 18 10 ZZW 1019,5 34 60 0,0
12.08.2018 09:00:00 18,5 9,1 22,0 21,2 21,6 22,5 8 4 16 9 ZW 1019,9 31 60 0,0
12.08.2018 08:00:00 15,4 8,7 17,7 18,4 21,7 22,5 8 5 16 9 WZW 1020,2 26 60 0,0
12.08.2018 07:00:00 11,9 8,4 12,0 16,7 22,0 22,5 5 3 13 7 ZZW 1020,4 34 31 0,0
12.08.2018 06:00:00 9,9 7,4 9,0 16,3 22,3 22,5 9 5 14 8 ZZW 1020,3 40 0 0,0
12.08.2018 05:00:00 9,0 6,8 6,9 16,8 22,7 22,5 5 3 14 8 Z 1020,0 36 0 0,0
12.08.2018 04:00:00 9,7 7,1 7,4 17,4 23,1 22,5 6 3 10 6 ZW 1020,1 39 0 0,0
12.08.2018 03:00:00 10,6 7,4 8,2 18,1 23,5 22,5 7 4 10 5 ZW 1020,2 42 0 0,0
12.08.2018 02:00:00 14,6 7,7 12,8 18,9 23,9 22,5 9 5 16 9 W 1020,2 51 0 0,0
12.08.2018 01:00:00 15,1 7,8 13,6 19,5 24,3 22,5 11 6 19 10 W 1020,3 50 0 0,0
12.08.2018 00:00:00 15,8 7,4 14,3 20,2 24,7 22,6 12 7 22 12 W 1020,3 56 0 0,0
11.08.2018 23:00:00 16,8 7,2 15,4 21,0 25,1 22,6 14 7 27 15 W 1020,2 47 0 0,0
11.08.2018 22:00:00 17,5 6,7 16,1 22,0 25,5 22,6 14 7 24 13 W 1020,0 50 0 0,0
11.08.2018 21:00:00 19,1 5,9 17,9 23,3 25,8 22,6 13 7 38 20 WNW 1019,6 50 0 0,0
11.08.2018 20:00:00 21,1 4,1 20,1 25,1 25,9 22,6 20 11 40 22 W 1018,6 46 57 0,0
11.08.2018 19:00:00 22,6 4,2 23,1 27,2 25,8 22,6 23 12 45 25 W 1018,4 35 58 0,0
11.08.2018 18:00:00 23,2 3,9 25,1 28,5 25,6 22,6 32 18 49 27 W 1018,1 31 55 0,0
11.08.2018 17:00:00 23,3 4,7 24,9 29,0 25,2 22,6 26 14 46 25 W 1018,1 29 47 0,0
11.08.2018 16:00:00 23,1 7,4 25,0 28,6 24,9 22,6 23 12 42 23 W 1018,4 39 45 0,0
11.08.2018 15:00:00 22,0 9,5 23,3 26,3 24,6 22,6 15 8 32 17 W 1018,4 41 20 0,2
11.08.2018 14:00:00 23,3 8,6 26,8 26,1 24,4 22,6 11 6 34 18 WZW 1018,5 36 20 0,0
11.08.2018 13:00:00 20,5 11,0 19,6 24,3 24,3 22,6 12 7 22 12 WZW 1019,0 26 12 0,0
11.08.2018 12:00:00 18,8 12,9 19,0 23,8 24,2 22,6 10 5 31 17 ZZW 1019,4 40 4 0,9
11.08.2018 11:00:00 21,8 9,9 24,2 24,8 24,0 22,6 16 9 24 13 ZZW 1019,4 35 19 0,0
11.08.2018 10:00:00 19,1 11,2 17,8 23,1 24,0 22,6 13 7 22 12 ZW 1019,5 34 4 0,0
11.08.2018 09:00:00 18,3 11,3 19,6 22,7 23,9 22,6 12 6 16 9 Z 1019,5 40 6 0,0
11.08.2018 08:00:00 16,4 11,9 17,4 21,3 24,1 22,6 11 6 16 9 ZZO 1019,7 34 40 0,0
11.08.2018 07:00:00 14,8 11,5 16,0 19,6 24,3 22,6 8 4 14 7 ZO 1020,0 24 31 0,0
11.08.2018 06:00:00 13,1 11,1 12,0 19,6 24,7 22,6 8 4 12 6 ZO 1020,1 27 0 0,0
11.08.2018 05:00:00 14,3 11,4 13,2 20,3 25,0 22,6 8 4 14 8 OZO 1020,4 32 0 0,0
11.08.2018 04:00:00 14,2 11,0 12,9 20,5 25,3 22,6 6 4 11 6 OZO 1021,0 26 0 0,0
11.08.2018 03:00:00 14,4 10,9 13,8 21,0 25,7 22,6 7 4 10 5 ZO 1021,4 30 0 0,0
11.08.2018 02:00:00 14,4 10,4 13,5 21,0 26,1 22,6 6 3 8 5 O 1022,0 29 0 0,0
11.08.2018 01:00:00 14,2 10,9 11,2 21,4 26,6 22,6 4 2 6 3 ONO 1022,3 28 0 0,0
11.08.2018 00:00:00 13,5 10,3 11,8 22,2 27,1 22,6 0 0 5 3 N 1022,2 38 0 0,0
10.08.2018 23:00:00 14,2 10,2 12,6 23,2 27,6 22,6 5 3 6 3 ZO 1022,4 45 0 0,0
10.08.2018 22:00:00 15,7 10,4 13,7 24,4 28,0 22,6 2 1 5 3 O 1022,3 49 0 0,0
10.08.2018 21:00:00 18,5 9,7 15,7 26,1 28,4 22,6 3 2 11 6 NNW 1022,0 45 26 0,0
10.08.2018 20:00:00 22,6 7,7 21,0 28,4 28,5 22,6 6 3 24 13 NW 1021,5 69 60 0,0
10.08.2018 19:00:00 23,8 7,5 24,2 30,7 28,5 22,6 16 9 27 15 W 1021,3 54 59 0,0
10.08.2018 18:00:00 24,0 8,6 27,4 30,2 28,4 22,5 11 6 22 12 WNW 1021,5 49 13 0,0
10.08.2018 17:00:00 24,1 9,1 26,6 31,7 28,2 22,5 12 6 27 15 W 1021,5 52 30 0,0
10.08.2018 16:00:00 23,3 8,8 25,9 31,1 28,0 22,5 13 7 29 16 W 1021,8 46 9 0,0
10.08.2018 15:00:00 22,6 10,7 25,2 31,1 27,8 22,5 14 8 32 17 W 1021,6 55 14 0,0
10.08.2018 14:00:00 21,8 10,8 24,6 30,1 27,6 22,5 17 9 34 19 WZW 1021,5 44 9 0,0
10.08.2018 13:00:00 21,5 10,5 24,3 29,7 27,4 22,5 23 13 36 20 W 1020,9 41 8 0,0
10.08.2018 12:00:00 21,1 11,8 23,2 28,4 27,3 22,5 20 11 42 23 W 1020,5 40 2 0,0
10.08.2018 11:00:00 21,5 11,6 23,4 27,4 27,3 22,5 29 16 40 22 W 1020,0 42 0 0,0
10.08.2018 10:00:00 21,9 14,0 22,6 26,7 27,3 22,5 19 10 36 19 W 1018,5 59 0 0,0
10.08.2018 09:00:00 22,8 14,5 23,7 27,0 27,4 22,5 22 12 38 20 WZW 1017,9 38 15 0,0
10.08.2018 08:00:00 22,7 15,0 23,9 26,4 27,5 22,5 16 9 32 17 W 1016,6 48 42 0,0
10.08.2018 07:00:00 21,8 15,7 22,3 24,9 27,7 22,5 10 6 21 12 WZW 1015,8 44 26 0,0
10.08.2018 06:00:00 21,2 16,1 20,5 24,7 28,1 22,5 12 6 23 13 WZW 1014,9 40 0 0,0
10.08.2018 05:00:00 21,1 17,2 20,4 24,9 28,5 22,5 13 7 25 14 ZW 1014,2 28 0 0,0
10.08.2018 04:00:00 21,5 17,0 20,4 25,5 28,9 22,5 10 5 17 9 ZW 1013,5 32 0 0,0
10.08.2018 03:00:00 22,4 17,1 20,9 26,2 29,3 22,5 8 4 18 10 WZW 1012,6 37 0 0,0
10.08.2018 02:00:00 22,6 17,2 20,4 26,9 29,7 22,5 7 4 12 7 WZW 1011,7 24 0 0,0
10.08.2018 01:00:00 23,5 17,2 21,7 27,8 30,1 22,5 4 2 23 12 WNW 1010,8 24 0 0,0
10.08.2018 00:00:00 27,0 16,2 25,8 28,7 30,6 22,5 9 5 44 24 W 1010,4 27 0 0,0
09.08.2018 23:00:00 25,2 17,0 23,1 29,2 31,0 22,5 7 4 14 8 OZO 1009,1 26 0 0,0
09.08.2018 22:00:00 25,4 17,9 24,0 30,2 31,5 22,4 8 5 16 8 O 1009,1 22 0 0,0
09.08.2018 21:00:00 27,1 17,9 25,8 31,8 31,9 22,4 9 5 17 9 O 1009,3 25 2 0,0
09.08.2018 20:00:00 30,1 16,6 29,5 34,2 32,1 22,4 11 6 44 24 OZO 1010,0 27 49 0,0
09.08.2018 19:00:00 33,8 14,8 34,7 36,8 32,1 22,4 15 8 24 13 OZO 1010,0 29 57 0,0
09.08.2018 18:00:00 34,2 15,1 35,6 38,9 31,8 22,4 14 8 24 13 O 1010,5 21 55 0,0
09.08.2018 17:00:00 33,9 15,7 37,8 40,1 31,3 22,4 13 7 24 13 ONO 1011,2 29 60 0,0
09.08.2018 16:00:00 33,5 15,4 38,3 41,0 30,7 22,4 11 6 21 11 ONO 1012,0 28 60 0,0
09.08.2018 15:00:00 32,6 15,1 38,5 41,2 29,8 22,4 10 5 21 11 NO 1013,0 24 60 0,0
09.08.2018 14:00:00 32,0 16,0 38,3 40,5 28,9 22,4 9 5 16 9 OZO 1013,9 16 60 0,0
09.08.2018 13:00:00 30,4 16,8 36,9 38,7 28,0 22,4 6 3 15 8 O 1014,6 30 60 0,0
09.08.2018 12:00:00 28,9 18,0 35,3 36,1 27,3 22,4 7 4 13 7 ONO 1015,2 18 60 0,0
09.08.2018 11:00:00 27,1 18,8 31,4 32,4 26,8 22,4 8 4 16 9 NO 1015,6 16 59 0,0
09.08.2018 10:00:00 25,6 19,2 29,7 28,8 26,5 22,4 8 5 17 9 NO 1015,6 12 60 0,0
09.08.2018 09:00:00 24,1 19,2 27,7 26,5 26,5 22,4 7 4 16 9 NNO 1015,5 14 60 0,0
09.08.2018 08:00:00 22,3 18,4 24,0 24,8 26,6 22,4 6 3 11 6 N 1015,2 9 60 0,0
09.08.2018 07:00:00 20,8 18,0 20,0 23,1 26,9 22,4 3 1 9 5 NW 1015,3 8 22 0,0
09.08.2018 06:00:00 19,8 18,0 18,5 22,8 27,3 22,4 5 3 10 5 N 1014,8 10 0 0,0
09.08.2018 05:00:00 20,0 18,1 18,6 23,3 27,7 22,4 6 3 14 7 NNW 1014,3 10 0 0,0
09.08.2018 04:00:00 19,4 18,1 18,7 23,8 28,1 22,4 6 3 9 5 WNW 1014,0 8 0 0,0
09.08.2018 03:00:00 20,0 18,7 18,9 24,4 28,6 22,4 3 1 6 4 WZW 1013,8 9 0 0,0
09.08.2018 02:00:00 20,8 19,0 19,8 25,1 29,1 22,4 4 2 15 8 ZZO 1013,9 10 0 0,0
09.08.2018 01:00:00 21,4 19,1 20,4 25,8 29,6 22,4 9 5 23 12 ZZO 1013,5 15 0 0,0
09.08.2018 00:00:00 22,0 20,0 21,2 26,9 30,1 22,4 6 3 10 6 NO 1012,4 13 0 0,1
08.08.2018 23:00:00 22,2 20,1 21,8 27,8 30,7 22,4 3 2 12 7 NNO 1012,7 14 0 0,0
08.08.2018 22:00:00 22,6 19,5 21,5 28,8 31,3 22,4 5 3 18 10 NW 1012,9 14 0 0,4
08.08.2018 21:00:00 22,8 19,3 21,7 30,7 31,8 22,4 7 4 35 19 ZO 1012,7 13 0 1,5
08.08.2018 20:00:00 30,0 14,1 26,8 34,5 32,0 22,3 20 11 41 22 W 1011,1 17 0 0,0
08.08.2018 19:00:00 33,5 13,6 33,3 37,4 31,9 22,3 16 9 25 13 ZO 1009,2 28 39 0,0
08.08.2018 18:00:00 35,8 12,0 38,6 39,7 31,6 22,3 9 5 22 12 Z 1009,1 18 60 0,0
08.08.2018 17:00:00 36,0 13,0 39,6 40,9 31,1 22,3 11 6 29 16 ZO 1009,2 24 60 0,0

tt = temperatuur
td = dauwpunt
tt 5cm = temperatuur 5cm
tt -5cm = temperatuur -5cm
tt -20cm = temperatuur -20cm
tt -100cm = temperatuur -100cm
ff = windsnelheid
fx = windstoten
dd = windrichting
ppp = luchtdruk
vv = zicht
sd = Zonneschijnduur
rr = neerslag

Weerstations in de omgeving